Terminal Aerodrome Forecast
Issued by NWS Raleigh/Durham, NC

Home | Current Version | Previous Version | Text Only | Print | Product List | Glossary On
Versions: 1 2 3 4 5 6 7 8 9 10 11 12 13 14 15 16 17 18 19 20 21 22 23 24 25 26 27 28 29 30 31 32 33 34 35 36 37 38 39 40 41
372
FTUS42 KRAH 131133
TAFRDU
TAF
KRDU 131133Z 1312/1412 32012G24KT P6SM SCT040
     FM131700 32013KT P6SM FEW045
     FM132300 32008G16KT P6SM SKC
     FM140800 36006KT P6SM SKC=

USA.gov is the U.S. government's official web portal to all federal, state and local government web resources and services.